Theta_e
329 326 325 325 323 324 325 327 326 327 329 330 329 328 327 326 326 325 324 326 326 326 327 327 325 327 322 321 320 318 317 317 317 316 310 306 305 304 304 304 304 305 305
333 327 332 328 324 323 321 323 326 332 332 332 332 331 331 330 330 329 328 327 327 328 328 329 328 327 325 324 324 324 323 321 318 317 317 310 306 304 304 304 304 304 305
334 332 330 333 330 328 327 327 329 330 331 330 330 331 332 332 331 330 330 329 328 328 328 328 328 327 326 325 325 325 325 325 324 322 318 318 313 306 304 304 304 304 305
332 331 331 329 332 333 333 331 330 331 331 332 332 332 333 333 333 332 332 331 331 331 329 328 329 329 328 327 325 326 326 326 325 324 322 320 318 317 307 304 303 304 304
332 330 332 333 334 334 333 333 332 333 334 334 333 332 332 332 333 332 332 333 332 331 330 330 326 327 326 327 327 325 325 326 326 325 324 321 320 319 319 313 305 303 303
334 334 333 334 335 335 335 335 334 333 333 333 332 332 331 332 332 332 330 330 330 330 328 328 326 324 325 325 326 326 324 323 324 324 324 323 321 320 319 319 318 316 307
336 335 334 335 336 335 334 334 334 333 333 332 332 332 332 330 331 330 331 330 326 327 327 325 323 323 323 323 323 323 322 322 322 323 323 323 323 321 321 320 319 319 318
336 336 336 335 337 335 334 333 333 332 331 330 330 330 329 327 327 325 328 329 326 325 325 324 323 323 323 322 322 321 321 322 321 322 322 322 322 322 322 321 320 320 319
337 334 333 334 335 336 335 333 332 331 330 329 328 329 329 327 327 326 326 326 325 324 323 322 322 323 323 320 320 320 319 319 320 320 319 320 321 322 322 322 321 319 319
329 331 332 332 329 325 323 322 321 324 327 328 327 328 328 326 326 324 323 323 324 323 323 323 322 322 322 320 319 319 318 318 318 319 319 319 317 318 320 321 321 320 319
328 323 319 317 316 314 313 312 312 313 313 314 314 320 322 322 322 323 322 322 320 322 322 322 321 319 317 316 316 315 315 315 316 316 317 316 316 317 318 319 320 320 319
316 315 314 313 312 312 311 311 311 311 311 312 312 312 317 319 322 321 321 323 322 322 322 321 320 318 316 315 313 313 313 313 313 313 313 313 314 314 315 316 318 318 319
313 313 313 312 312 312 312 312 312 312 312 312 312 315 321 321 318 319 322 320 320 322 322 320 319 317 315 315 312 312 311 310 310 309 311 313 313 314 314 315 315 316 317
312 312 312 312 312 312 312 312 311 311 311 311 313 316 317 320 319 319 319 318 316 320 320 319 318 316 315 313 312 312 311 309 309 308 308 308 311 311 311 311 311 311 312
312 312 312 312 312 312 311 310 310 309 310 311 310 313 313 316 318 318 318 316 321 320 319 318 316 316 314 312 311 311 310 308 308 307 306 305 306 307 309 309 309 309 309
312 312 312 312 311 311 310 309 309 309 309 310 313 314 314 315 316 316 320 317 319 319 318 316 315 314 313 312 310 308 308 307 306 306 305 305 305 306 306 307 308 308 309
312 312 311 311 311 310 309 309 308 309 309 309 312 312 312 313 313 314 315 316 316 315 314 314 313 311 310 308 308 307 306 306 305 304 304 303 303 304 304 305 306 307 307
312 311 310 310 310 309 309 308 308 308 308 309 309 310 311 311 311 311 311 312 313 312 311 309 307 306 307 306 306 305 305 304 304 304 303 303 303 302 303 304 306 307 307
309 309 308 308 309 309 308 308 308 308 308 308 308 309 309 309 309 308 307 308 308 308 307 307 306 305 305 305 304 304 303 303 303 303 303 303 302 301 302 303 303 304 304
307 307 307 307 307 307 307 308 307 307 308 308 308 307 307 307 307 307 306 306 306 306 306 305 304 302 302 303 303 303 302 302 301 300 299 300 300 300 300 301 301 302 302
306 306 306 306 306 307 307 307 307 307 307 307 306 306 306 306 306 306 306 306 305 305 304 303 302 300 298 297 297 297 297 296 294 292 291 291 292 294 295 297 298 299 299
304 304 304 305 305 306 306 306 306 305 305 305 305 305 304 303 301 300 300 298 298 296 295 296 295 293 293 293 292 290 290 289 289 289 289 288 288 288 288 288 288 288 288
301 301 301 302 302 304 305 304 305 304 304 304 303 302 299 294 291 291 291 290 290 290 289 289 289 290 290 290 289 288 288 288 288 287 288 287 287 287 287 287 288 288 288
301 301 300 301 301 302 303 302 303 302 301 300 297 293 290 290 290 290 290 290 290 289 288 288 288 288 288 288 288 287 287 287 287 287 287 287 287 288 289 289 289 289 289
299 300 301 300 300 301 300 300 300 297 293 290 290 290 290 290 290 289 289 288 289 288 288 287 287 287 287 286 286 286 286 286 286 287 287 287 288 289 289 289 289 289 289
300 300 300 299 298 299 298 296 291 289 289 289 289 289 289 289 289 288 288 288 288 288 288 287 286 286 286 286 286 286 286 286 286 286 288 288 288 288 289 289 289 289 289
Wind_Speed
6 6 6 7 5 4 4 6 6 7 8 8 9 10 9 9 9 9 12 12 11 11 12 13 14 14 14 14 14 11 10 9 9 8 8 7 6 6 6 5 5 5 5
9 7 7 7 7 8 8 7 7 6 7 8 9 9 10 12 11 12 12 14 14 13 13 13 13 14 16 15 16 15 13 10 9 9 8 8 8 7 7 7 6 6 5
11 9 8 7 7 7 7 8 9 11 13 13 12 10 10 12 13 14 16 17 17 17 16 14 14 14 14 15 16 15 14 14 13 9 11 10 8 8 8 8 8 8 8
11 10 9 10 10 8 9 9 10 10 10 11 11 11 11 13 15 18 17 18 19 21 21 19 18 16 16 17 16 15 16 17 15 15 11 10 9 8 8 8 8 8 10
10 10 9 8 8 9 11 11 10 11 12 12 13 15 16 17 19 20 20 19 17 19 19 21 21 21 19 18 19 18 17 17 19 18 16 13 11 8 6 7 8 8 10
11 11 10 10 9 10 11 12 13 15 17 18 20 21 22 20 23 23 19 17 17 20 19 17 20 16 16 15 14 16 18 18 19 19 20 18 16 13 10 8 8 9 10
12 12 13 12 12 14 14 13 15 16 18 19 22 24 23 21 18 18 19 19 18 13 17 19 18 14 12 13 14 13 14 16 19 19 19 20 20 18 16 15 12 12 11
17 17 16 15 14 16 16 17 17 20 21 21 23 23 23 21 22 13 16 20 16 15 17 20 17 14 14 13 15 17 17 17 17 19 20 19 19 21 23 22 20 17 17
15 16 17 18 18 20 21 21 23 23 26 26 26 25 16 15 12 12 11 13 15 18 17 17 16 15 16 17 18 18 18 19 18 18 19 20 20 20 20 23 24 22 20
15 16 18 20 22 23 23 25 24 26 27 28 26 25 27 27 25 15 18 18 17 18 20 20 18 12 16 18 19 18 19 19 22 19 19 21 21 23 21 21 23 26 24
18 17 19 20 22 23 24 25 24 24 23 24 24 23 23 23 24 25 25 24 21 20 17 14 13 15 15 17 18 17 16 15 15 16 17 18 20 20 23 22 20 23 32
19 18 19 21 22 23 23 23 23 22 22 22 23 21 20 19 17 18 20 21 22 20 21 15 20 16 17 20 18 15 13 14 16 16 17 18 22 25 26 26 21 16 17
19 21 22 21 21 22 22 23 23 23 24 24 24 21 18 19 20 23 24 19 22 22 14 18 19 18 17 20 18 16 14 15 16 18 20 20 20 20 20 20 19 21 22
20 23 23 22 22 22 22 23 23 22 22 22 21 18 19 21 19 22 24 23 21 18 18 21 16 18 17 16 18 17 17 16 17 20 20 20 21 20 20 20 19 20 20
22 22 23 23 23 22 22 22 21 21 21 22 21 18 18 17 17 19 18 20 20 18 16 15 19 20 16 16 17 18 18 20 21 21 19 18 12 15 18 19 19 19 18
21 22 22 23 22 22 21 20 20 19 19 18 16 12 11 13 16 15 16 15 17 16 9 14 19 17 18 20 19 18 21 21 19 16 16 11 10 8 7 5 3 5 6
22 22 22 21 20 20 19 18 18 16 15 14 13 13 14 15 15 15 15 17 18 20 20 20 19 21 21 19 18 20 20 16 13 10 11 12 7 3 4 3 4 5 7
22 21 20 20 20 19 17 17 16 15 13 13 13 14 15 15 16 15 15 18 20 18 16 16 17 17 17 17 19 18 13 11 10 11 12 9 8 5 6 6 7 7 8
21 21 20 20 20 19 17 16 16 16 15 15 14 13 12 13 13 14 15 13 13 12 13 15 17 18 15 15 14 11 8 9 9 9 11 11 10 10 11 12 14 16 16
21 20 21 20 19 18 17 16 16 17 16 16 15 15 14 14 13 13 12 12 12 12 12 13 11 11 10 8 9 9 10 11 10 10 11 12 12 11 11 13 15 18 20
20 21 19 18 18 17 17 16 16 16 15 15 14 14 13 13 12 11 10 9 9 10 10 10 9 8 8 8 6 8 10 10 11 11 10 12 13 12 14 15 15 15 16
18 18 18 18 17 16 15 15 14 14 13 13 10 11 9 8 7 6 7 9 8 7 9 9 10 8 9 9 10 9 10 10 8 10 9 9 13 13 13 15 15 16 16
15 15 15 14 15 14 14 12 12 12 11 10 9 8 8 8 6 6 5 5 6 6 8 9 10 10 12 10 11 11 12 11 9 10 10 7 8 7 9 9 8 9 10
13 14 14 14 14 13 11 10 10 10 10 9 9 7 8 7 6 5 6 6 6 5 7 9 10 10 11 11 11 10 10 10 9 8 6 4 5 4 6 8 6 6 5
12 12 13 13 14 12 9 9 9 8 8 7 6 6 8 6 6 6 7 8 7 6 7 8 9 10 9 10 10 10 10 9 6 6 5 6 5 7 8 6 4 5 4
11 13 12 13 14 11 11 9 8 8 8 7 7 7 7 8 7 8 9 8 7 7 6 7 8 7 7 8 8 8 8 7 5 5 4 6 8 9 5 5 2 9 9
Wind_Direction
220 204 205 237 245 257 262 254 267 244 290 313 303 303 307 305 303 296 295 305 311 313 314 316 317 311 312 314 312 305 309 316 320 321 316 310 305 302 301 303 306 307 306
243 215 213 233 231 238 248 249 251 280 282 278 297 293 291 299 304 303 299 302 306 306 305 307 307 298 305 309 313 316 319 323 323 320 313 310 303 298 296 295 294 295 295
225 225 215 248 259 252 248 242 248 245 255 261 268 284 292 290 292 289 292 302 305 306 304 297 296 294 294 297 297 300 305 310 318 329 321 319 313 305 299 293 293 294 291
231 225 235 226 236 255 266 262 261 269 276 284 288 285 275 282 290 297 297 295 297 304 304 303 298 288 286 286 286 284 291 292 295 303 311 319 319 318 300 295 292 288 286
232 233 234 243 251 249 254 269 276 276 276 272 275 274 272 273 266 274 279 281 289 291 288 297 301 292 287 280 275 276 277 275 282 283 287 292 296 298 302 295 286 284 278
231 238 241 238 240 249 255 257 264 268 273 274 279 278 280 272 273 284 288 286 277 272 278 281 300 301 292 287 282 277 272 268 271 271 278 281 280 281 286 295 300 298 286
234 245 246 235 243 246 250 256 269 277 275 280 284 283 284 284 282 284 283 286 287 276 271 280 294 296 291 290 288 287 283 274 266 269 270 269 274 281 284 286 286 291 289
230 236 250 254 243 256 258 262 263 270 272 275 278 281 288 289 297 295 271 265 267 265 280 287 293 287 284 288 286 289 291 289 275 266 266 267 264 268 276 274 264 279 277
233 244 252 255 259 255 257 263 267 267 273 274 277 274 282 282 279 304 284 260 268 284 288 282 285 281 281 286 289 287 288 291 285 277 272 268 267 267 260 257 255 266 263
253 258 262 265 269 271 271 273 274 271 268 269 269 266 266 271 280 285 268 270 278 278 292 280 286 280 277 281 283 280 283 278 276 272 272 273 270 269 271 266 255 251 249
264 263 268 273 276 279 281 281 279 278 276 274 272 265 264 264 269 265 273 272 271 272 283 281 272 272 295 304 298 291 285 279 278 278 273 273 280 276 265 265 266 260 239
264 268 272 276 278 278 277 277 278 278 278 277 276 273 262 258 264 264 270 269 269 268 271 263 276 278 292 307 302 293 287 286 285 288 281 276 269 268 266 268 266 261 265
268 273 278 280 278 276 276 277 278 279 279 277 280 276 271 265 259 265 272 268 273 269 256 245 256 271 287 304 296 291 289 298 296 299 285 277 273 275 276 275 274 263 259
266 277 282 280 277 278 280 280 280 280 277 277 274 266 265 259 252 253 260 263 265 269 261 239 255 272 282 290 288 284 295 299 301 302 298 286 276 272 272 274 277 278 275
268 273 275 277 279 280 281 281 281 277 274 272 276 272 270 267 258 261 261 262 260 238 232 247 255 272 269 282 281 286 292 300 301 301 304 312 288 274 273 275 275 274 277
271 273 275 277 279 280 281 282 279 275 269 268 267 262 267 264 255 257 246 255 249 241 241 242 261 262 271 276 279 289 293 300 300 304 311 313 321 306 288 257 256 305 291
275 275 277 278 278 278 279 279 279 280 274 266 258 253 252 249 252 258 257 252 255 261 261 251 252 264 274 281 285 289 297 299 300 308 308 313 321 314 320 308 280 249 262
272 274 276 275 275 275 275 273 274 274 272 266 255 245 245 247 247 251 251 247 247 250 251 253 264 272 272 274 282 288 294 299 297 291 295 305 301 275 264 254 239 232 243
273 274 273 271 272 272 269 267 267 265 261 259 259 257 251 250 251 251 253 253 250 250 251 255 263 270 271 270 274 273 280 285 286 284 284 282 286 275 258 258 258 262 265
273 272 270 271 269 268 264 260 257 258 258 258 258 258 253 254 256 256 252 250 251 250 251 253 258 264 274 265 262 262 274 275 279 285 286 285 281 277 271 265 261 260 261
269 268 270 266 265 263 263 260 256 253 249 249 250 254 252 251 252 252 248 248 253 257 256 254 254 254 272 278 270 272 272 275 280 277 283 288 286 284 283 276 275 273 271
268 266 267 268 267 263 261 257 250 246 237 238 236 238 242 232 235 232 238 241 252 260 266 256 258 266 268 279 287 283 277 274 276 288 289 288 286 284 280 280 285 286 279
275 268 265 265 268 263 256 249 238 233 233 222 215 214 226 243 249 254 255 253 259 266 263 260 257 262 267 277 280 282 284 287 290 286 296 301 285 286 287 294 302 295 294
265 264 257 258 262 258 248 238 223 208 205 199 201 218 243 252 263 266 271 275 271 271 265 265 266 269 274 279 281 284 283 284 289 293 306 312 297 301 299 297 296 296 306
260 252 248 251 260 243 224 209 196 192 202 215 219 232 251 260 277 281 276 274 276 267 271 272 270 272 277 281 281 281 282 282 279 285 306 309 309 321 311 295 281 279 278
244 240 242 251 253 225 211 205 201 206 211 222 232 244 261 274 280 280 277 276 275 282 280 275 273 277 279 276 274 274 277 280 283 282 289 302 319 327 326 311 312 304 299